Weather Roundup
Issued by NWS Springfield, MO

Current Version | Previous Version | Text Only | Print | Product List | Glossary On
Versions: 1 2 3 4 5 6 7 8 9 10 11 12 13 14 15 16 17 18 19 20 21 22 23 24 25 26 27 28 29 30 31 32 33 34 35 36 37 38 39 40 41 42 43 44 45 46 47 48 49 50
000
NZUS99 KSGF 040907
HRRSGF

HOURLY WEATHER
NATIONAL WEATHER SERVICE SPRINGFIELD MO
300 AM CST SUN DEC 04 2016

......SGF CWA......

CITY           SKY/WX    TMP DP  RH WIND       PRES   REMARKS
SPRINGFIELD    CLOUDY    39  36  89 SE13      30.03S WCI  31
JOPLIN         LGT RAIN  40  40 100 E7        30.04F FOG
WEST PLAINS    CLOUDY    37  35  92 E9        30.06F WCI  30
ROLLA          CLOUDY    36  35  96 E8        30.06F FOG     WCI  30
OSAGE BEACH    MIX PCPN  37  36  96 E5        30.09F WCI  33
BRANSON        LGT RAIN  37  37 100 SE12      30.05R WCI  30

......SURROUNDING SGF CWA......

CITY           SKY/WX    TMP DP  RH WIND       PRES   REMARKS
CHANUTE        LGT RAIN  40  39  97 SE8       30.03F FOG     WCI  34
PARSONS        CLOUDY    41  40  96 E3        30.04S FOG
COFFEYVILLE    LGT RAIN  42  41  96 E5        30.04S FOG
EMPORIA        LGT RAIN  39  39 100 NW7       30.03S FOG     WCI  34
GROVE OK       DRIZZLE   43  43 100 CALM      30.04F
ROGERS AR      CLOUDY    40  39  97 E9        30.02R WCI  34
SILOAM SPRINGS CLOUDY    41  39  93 CALM      30.01F
HARRISON AR    CLOUDY    38  38 100 E8        30.04R FOG     WCI  32
NEAR YELLVILLE CLOUDY    39  34  81 E8        30.03S WCI  34

......KANSAS AND MISSOURI......

CITY           SKY/WX    TMP DP  RH WIND       PRES   REMARKS
KANSAS CTY INT LGT RAIN  40  37  89 SE6       30.04F FOG
DOWNTOWN KC    LGT RAIN  41  39  93 SE9       30.05F
COLUMBIA       LGT RAIN  37  35  92 E7        30.10F WCI  32
SEDALIA        LGT RAIN  39  37  92 E6        30.10S WCI  35
ST JOSEPH      LGT RAIN  40  39  97 SE6       30.06F FOG
ST LOUIS       LGT RAIN  41  32  70 E10       30.15F
SPIRIT OF STL  LGT RAIN  40  34  79 E3        30.15S
KIRKSVILLE     MIX PCPN  37  35  92 SE9       30.12F FOG     WCI  30
WICHITA        LGT RAIN  41  41 100 N6        30.03S
TOPEKA         LGT RAIN  40  38  93 CALM      30.04F FOG
OLATHE         LGT RAIN  38  37  97 S13       30.04F WCI  30

......TENNESSEE......

CITY           SKY/WX    TMP DP  RH WIND       PRES   REMARKS
MEMPHIS        LGT RAIN  43  42  97 N6        30.07R FOG
NASHVILLE      LGT RAIN  41  38  89 E7        30.15F FOG

......ARKANSAS.......

CITY           SKY/WX    TMP DP  RH WIND       PRES   REMARKS
FAYETTEVILLE   CLOUDY    42  42 100 E5        30.00F FOG
FT SMITH       CLOUDY    44  41  89 E8        30.02F FOG
LITTLE ROCK    CLOUDY    42  42 100 E12       30.03F FOG

......OKLAHOMA.......

CITY           SKY/WX    TMP DP  RH WIND       PRES   REMARKS
TULSA          DRZL/FOG  45  45 100 CALM      30.02S VSB 1
PONCA CITY     LGT RAIN  44  42  93 CALM      30.04R FOG
MCALESTER      CLOUDY    46  44  93 CALM      30.02R FOG
OKLAHOMA CITY  LGT RAIN  44  43  96 NW3       30.03R FOG

......IOWA............

CITY           SKY/WX    TMP DP  RH WIND       PRES   REMARKS
DES MOINES     LGT SNOW  35  34  96 S8        30.06F FOG     WCI  29
QUAD CITIES    CLOUDY    35  27  72 E9        30.17F WCI  28

......ILLINOIS........

CITY           SKY/WX    TMP DP  RH WIND       PRES   REMARKS
QUINCY         CLOUDY    38  34  85 SE5       30.14S WCI  34
CHICAGO        CLOUDY    31  26  82 S3        30.23F



USA.gov is the U.S. government's official web portal to all federal, state and local government web resources and services.